When you browse on this site, cookies collect data to enhance your experience and personalize the content and advertising you see.
Visit our Privacy Policy to learn more. By continuing to use the site, you agree to this use of cookies and data.
  • In Denmark
  • List of Countries
  • For 7 days
  • Water Temperature
  • Weather Map
  • Weather Widgets
  • user-avatar
    Login

    Hourly Weather Alicante

    Today, 13 December, Friday

    Time Temperature Precipitation Wind Pressure Humidity
    00:00 +13°C° 0 mm 6 mps 758 mmHg 69%
    01:00 +12°C° 0 mm 7 mps 758 mmHg 71%
    02:00 +14°C° 0 mm 7 mps 757 mmHg 74%
    03:00 +13°C° 0 mm 8 mps 757 mmHg 77%
    04:00 +13°C° 0 mm 8 mps 757 mmHg 76%
    05:00 +15°C° 0 mm 7 mps 757 mmHg 76%
    06:00 +15°C° 0 mm 6 mps 756 mmHg 76%
    07:00 +15°C° 0 mm 7 mps 757 mmHg 74%
    08:00 +16°C° 0 mm 7 mps 757 mmHg 72%
    09:00 +16°C° 0 mm 8 mps 758 mmHg 70%
    10:00 +17°C° 0 mm 9 mps 758 mmHg 64%
    11:00 +18°C° 0 mm 10 mps 758 mmHg 58%
    12:00 +19°C° 0 mm 9 mps 758 mmHg 50%
    13:00 +19°C° 0 mm 9 mps 758 mmHg 52%
    14:00 +19°C° 0 mm 9 mps 758 mmHg 53%
    15:00 +19°C° 0 mm 9 mps 758 mmHg 55%
    16:00 +18°C° 0 mm 9 mps 759 mmHg 58%
    17:00 +17°C° 0 mm 9 mps 759 mmHg 61%
    18:00 +16°C° 0 mm 8 mps 760 mmHg 64%
    19:00 +16°C° 0 mm 8 mps 760 mmHg 65%
    20:00 +16°C° 0 mm 8 mps 760 mmHg 66%
    21:00 +15°C° 0 mm 7 mps 761 mmHg 67%
    22:00 +15°C° 0 mm 7 mps 761 mmHg 70%
    23:00 +14°C° 0 mm 6 mps 761 mmHg 72%

    Tomorrow, 14 December, Saturday

    Time Temperature Precipitation Wind Pressure Humidity
    00:00 +14°C° 0 mm 6 mps 761 mmHg 74%
    01:00 +13°C° 0 mm 5 mps 761 mmHg 75%
    02:00 +13°C° 0 mm 5 mps 760 mmHg 76%
    03:00 +13°C° 0 mm 5 mps 760 mmHg 77%
    04:00 +12°C° 0 mm 5 mps 760 mmHg 77%
    05:00 +12°C° 0 mm 5 mps 761 mmHg 77%
    06:00 +12°C° 0 mm 5 mps 761 mmHg 77%
    07:00 +13°C° 0 mm 5 mps 761 mmHg 74%
    08:00 +13°C° 0 mm 5 mps 762 mmHg 71%
    09:00 +14°C° 0 mm 5 mps 762 mmHg 67%
    10:00 +15°C° 0 mm 5 mps 762 mmHg 63%
    11:00 +17°C° 0 mm 5 mps 762 mmHg 58%
    12:00 +19°C° 0 mm 5 mps 762 mmHg 53%
    13:00 +19°C° 0 mm 5 mps 761 mmHg 53%
    14:00 +18°C° 0 mm 4 mps 761 mmHg 53%
    15:00 +18°C° 0 mm 4 mps 761 mmHg 54%
    16:00 +17°C° 0 mm 4 mps 761 mmHg 59%
    17:00 +16°C° 0 mm 3 mps 761 mmHg 64%
    18:00 +13°C° 0 mm 3 mps 761 mmHg 69%
    19:00 +13°C° 0 mm 3 mps 761 mmHg 71%
    20:00 +12°C° 0 mm 3 mps 762 mmHg 72%
    21:00 +12°C° 0 mm 4 mps 762 mmHg 74%
    22:00 +12°C° 0 mm 4 mps 762 mmHg 74%
    23:00 +12°C° 0 mm 4 mps 762 mmHg 74%

    Day after tomorrow, 15 December, Sunday

    Time Temperature Precipitation Wind Pressure Humidity
    00:00 +11°C° 0 mm 4 mps 761 mmHg 75%
    01:00 +11°C° 0 mm 4 mps 761 mmHg 75%
    02:00 +11°C° 0 mm 4 mps 761 mmHg 75%
    03:00 +11°C° 0 mm 4 mps 761 mmHg 76%
    04:00 +11°C° 0 mm 4 mps 761 mmHg 76%
    05:00 +11°C° 0 mm 3 mps 761 mmHg 75%
    06:00 +11°C° 0 mm 3 mps 760 mmHg 75%
    07:00 +11°C° 0 mm 3 mps 761 mmHg 72%
    08:00 +12°C° 0 mm 3 mps 761 mmHg 68%
    09:00 +13°C° 0 mm 3 mps 761 mmHg 65%
    10:00 +15°C° 0 mm 2 mps 761 mmHg 59%
    11:00 +17°C° 0 mm 2 mps 760 mmHg 54%
    12:00 +19°C° 0 mm 1 mps 760 mmHg 48%
    13:00 +19°C° 0 mm 1 mps 760 mmHg 48%
    14:00 +19°C° 0 mm 1 mps 759 mmHg 48%
    15:00 +19°C° 0 mm 2 mps 759 mmHg 48%
    16:00 +18°C° 0 mm 1 mps 758 mmHg 56%
    17:00 +15°C° 0 mm 1 mps 758 mmHg 64%
    18:00 +13°C° 0 mm 1 mps 758 mmHg 72%
    19:00 +13°C° 0 mm 1 mps 758 mmHg 72%
    20:00 +13°C° 0 mm 1 mps 758 mmHg 73%
    21:00 +13°C° 0 mm 1 mps 758 mmHg 74%
    22:00 +13°C° 0 mm 1 mps 758 mmHg 74%
    23:00 +12°C° 0 mm 1 mps 757 mmHg 73%

    16 December, Monday

    Time Temperature Precipitation Wind Pressure Humidity
    00:00 +12°C° 0 mm 1 mps 757 mmHg 73%
    01:00 +12°C° 0 mm 1 mps 756 mmHg 74%
    02:00 +12°C° 0 mm 1 mps 756 mmHg 75%
    03:00 +12°C° 0 mm 1 mps 755 mmHg 76%
    04:00 +12°C° 0 mm 1 mps 755 mmHg 77%
    05:00 +12°C° 0 mm 1 mps 755 mmHg 79%
    06:00 +12°C° 0 mm 1 mps 754 mmHg 81%
    07:00 +13°C° 0 mm 1 mps 754 mmHg 79%
    08:00 +14°C° 0 mm 1 mps 754 mmHg 78%
    09:00 +14°C° 0 mm 1 mps 754 mmHg 77%
    10:00 +15°C° 0 mm 1 mps 753 mmHg 77%
    11:00 +16°C° 0 mm 1 mps 753 mmHg 76%
    12:00 +18°C° 0 mm 1 mps 752 mmHg 76%
    13:00 +18°C° 0 mm 1 mps 751 mmHg 76%
    14:00 +18°C° 0 mm 1 mps 751 mmHg 77%
    15:00 +18°C° 0 mm 1 mps 750 mmHg 77%
    16:00 +16°C° 0 mm 1 mps 750 mmHg 82%
    17:00 +14°C° 0 mm 1 mps 750 mmHg 88%
    18:00 +13°C° 0 mm 1 mps 750 mmHg 93%
    19:00 +13°C° 0 mm 1 mps 751 mmHg 92%
    20:00 +12°C° 0 mm 1 mps 751 mmHg 92%
    21:00 +12°C° 0 mm 1 mps 751 mmHg 91%
    22:00 +13°C° 0 mm 1 mps 751 mmHg 88%
    23:00 +13°C° 0 mm 1 mps 751 mmHg 86%

    17 December, Tuesday

    Time Temperature Precipitation Wind Pressure Humidity
    00:00 +13°C° 0 mm 1 mps 751 mmHg 83%
    01:00 +13°C° 0.2 mm 1 mps 751 mmHg 78%
    02:00 +13°C° 0.2 mm 2 mps 751 mmHg 73%
    03:00 +14°C° 0.2 mm 2 mps 751 mmHg 68%
    04:00 +13°C° 0.1 mm 2 mps 751 mmHg 74%
    05:00 +11°C° 0.1 mm 3 mps 751 mmHg 79%
    06:00 +11°C° 0.1 mm 3 mps 751 mmHg 84%
    07:00 +12°C° 0 mm 3 mps 752 mmHg 79%
    08:00 +13°C° 0 mm 2 mps 752 mmHg 74%
    09:00 +14°C° 0 mm 2 mps 752 mmHg 69%
    10:00 +14°C° 0.4 mm 2 mps 752 mmHg 71%
    11:00 +14°C° 0.4 mm 2 mps 752 mmHg 72%
    12:00 +13°C° 0.4 mm 3 mps 752 mmHg 74%
    13:00 +13°C° 0.8 mm 3 mps 752 mmHg 73%
    14:00 +13°C° 0.8 mm 3 mps 752 mmHg 72%
    15:00 +13°C° 0.8 mm 3 mps 752 mmHg 71%
    16:00 +12°C° 0.4 mm 4 mps 753 mmHg 67%
    17:00 +12°C° 0.4 mm 5 mps 753 mmHg 63%
    18:00 +11°C° 0.4 mm 6 mps 754 mmHg 59%
    19:00 +10°C° 0 mm 6 mps 754 mmHg 59%
    20:00 +10°C° 0 mm 7 mps 755 mmHg 59%
    21:00 +10°C° 0 mm 7 mps 756 mmHg 60%
    22:00 +9°C° 0 mm 8 mps 756 mmHg 60%
    23:00 +9°C° 0 mm 8 mps 757 mmHg 61%

    18 December, Wednesday

    Time Temperature Precipitation Wind Pressure Humidity
    00:00 +9°C° 0 mm 8 mps 757 mmHg 62%
    01:00 +9°C° 0 mm 8 mps 757 mmHg 63%
    02:00 +7°C° 0 mm 8 mps 758 mmHg 65%
    03:00 +7°C° 0 mm 8 mps 758 mmHg 67%
    04:00 +6°C° 0 mm 8 mps 758 mmHg 68%
    05:00 +6°C° 0 mm 7 mps 759 mmHg 68%
    06:00 +6°C° 0 mm 7 mps 759 mmHg 69%
    07:00 +8°C° 0 mm 6 mps 760 mmHg 67%
    08:00 +8°C° 0 mm 6 mps 760 mmHg 65%
    09:00 +9°C° 0 mm 5 mps 760 mmHg 62%
    10:00 +10°C° 0 mm 6 mps 760 mmHg 52%
    11:00 +13°C° 0 mm 6 mps 760 mmHg 42%
    12:00 +14°C° 0 mm 7 mps 760 mmHg 32%
    13:00 +15°C° 0 mm 6 mps 760 mmHg 33%
    14:00 +15°C° 0 mm 5 mps 760 mmHg 35%
    15:00 +15°C° 0 mm 5 mps 759 mmHg 37%
    16:00 +13°C° 0 mm 4 mps 759 mmHg 44%
    17:00 +12°C° 0 mm 4 mps 759 mmHg 51%
    18:00 +10°C° 0 mm 4 mps 760 mmHg 59%
    19:00 +10°C° 0 mm 3 mps 760 mmHg 60%
    20:00 +10°C° 0 mm 3 mps 760 mmHg 61%
    21:00 +9°C° 0 mm 2 mps 760 mmHg 61%
    22:00 +9°C° 0 mm 2 mps 760 mmHg 60%
    23:00 +9°C° 0 mm 2 mps 759 mmHg 59%
    Show more